Find Starlink 36927

NORAD ID: 67941 Int'l Des: 2026-037 Owner: SPXS Country: US Constellation: starlink operational
LEOCIRCULAR

Live Position

Loading 3D Globe...

About Starlink 36927

Description loading...

Upcoming Passes

Passes for default location (London). Set your location on the main map for personalized predictions.

Altitude History

Loading altitude history...

Two-Line Element Set

1 67941U 26037K 26112.25001157 -.00011687 00000-0 -41570-3 0 9993
2 67941 43.0010 304.5139 0001309 324.1756 86.2024 15.27591851 5947
Epoch: Apr 22, 2026 • Age: 12 hours

Current Status

Altitude 487.5 km
Velocity 7.62 km/s
Sub-Earth Point -22.78°S, 151.44°E
Launch Date Feb 24, 2026
Age 0.1 years
Type internet

Technical Details

Classification Payload
Mass 575.00 kg
Dry Mass 530.00 kg
Total Mass 575.00 kg
Length 0.30 m
Diameter 4.10 m
Span 29.00 m
Shape Box + pan
Manufacturer SPXS
Bus Type Starlink V2MO
Phase Status In Orbit
Owner/State SPXS/US

Most Searched